Wind_Speed
71 72 72 72 72 72 72 73 74 75 76 76 76 77 77 78 78 79 79 80 79 79 79 78 78 78 77 75 73 73 72 72 71 71 71 72 72 71 69 66 64 61 59
76 76 76 77 77 77 77 77 77 78 79 79 79 80 80 80 81 81 82 82 82 81 80 80 79 79 79 78 76 75 74 73 74 74 73 73 74 73 72 70 66 63 60
82 82 82 83 83 82 82 81 82 82 82 82 83 83 83 84 84 84 84 85 85 85 84 83 81 81 80 79 78 76 75 75 76 77 76 75 75 76 75 72 70 65 61
88 89 89 89 89 88 88 88 87 87 87 87 87 86 86 86 86 87 88 88 88 88 87 86 85 83 82 81 80 78 77 78 79 79 79 78 77 78 77 74 70 66 64
96 97 97 97 97 96 96 95 95 95 95 94 93 91 90 89 88 89 90 91 91 91 90 89 88 87 85 84 83 81 80 80 81 81 81 81 80 80 79 75 72 69 67
100 101 102 102 102 102 102 102 102 101 101 100 99 98 96 94 93 93 93 93 93 93 93 92 91 90 89 87 86 85 84 83 82 83 83 83 82 81 80 78 76 74 69
98 98 99 100 102 102 104 104 105 105 105 105 104 104 103 102 101 100 100 99 98 96 96 96 95 94 92 91 90 89 88 85 85 85 86 85 84 84 83 81 79 76 70
89 91 92 94 96 97 99 101 103 106 107 108 108 107 107 106 106 106 106 106 105 102 100 100 99 98 96 95 93 92 90 88 87 87 86 86 87 87 86 84 81 79 76
80 82 85 87 90 92 94 95 97 100 101 103 105 105 106 105 104 104 106 108 109 108 106 104 103 101 100 100 99 96 93 90 89 88 87 87 89 90 89 88 85 83 78
76 79 81 83 86 88 89 90 91 93 94 95 96 97 98 99 97 98 99 103 106 106 107 106 106 104 103 103 103 101 98 94 92 91 90 89 89 89 89 87 86 85 81
75 77 79 82 84 85 86 87 88 89 90 90 91 91 91 92 92 92 94 97 98 99 101 102 103 103 104 105 105 104 102 99 97 95 93 92 91 90 89 86 85 84 83
75 77 79 80 81 82 82 82 83 83 83 83 84 84 84 86 87 89 91 94 95 96 95 94 95 97 100 102 104 105 103 103 102 100 97 95 92 90 89 88 86 85 83
75 76 76 75 75 74 73 71 70 70 71 71 71 71 71 73 75 79 83 87 90 92 91 90 90 92 94 97 99 100 102 103 102 101 99 95 93 91 90 88 87 85 83
71 70 68 65 63 61 60 59 59 60 61 62 62 62 62 62 63 66 69 74 79 83 86 87 87 88 90 91 92 94 96 98 98 98 96 95 93 91 89 88 87 85 83
63 60 57 54 52 50 51 52 53 54 56 57 57 57 57 56 57 59 60 63 66 70 75 79 81 83 85 86 86 87 88 90 91 92 93 92 91 89 88 87 85 84 83
53 50 46 44 44 44 45 46 49 50 51 52 52 51 50 51 52 54 55 56 58 61 64 67 69 73 77 79 81 82 83 84 85 86 87 87 87 87 86 85 83 83 83
43 42 40 40 41 42 42 42 40 41 43 45 45 44 42 42 44 46 49 51 53 55 56 56 57 61 65 70 74 76 78 79 81 83 83 83 83 83 83 83 83 83 83
35 36 37 38 39 38 39 38 38 37 37 39 40 39 37 35 35 36 38 41 44 47 47 47 47 50 55 60 65 68 72 75 78 79 80 80 79 80 80 81 81 82 82
29 31 32 34 35 36 36 36 36 36 36 36 35 36 35 33 31 30 29 31 33 36 39 40 41 44 48 52 57 61 66 70 73 75 76 76 75 75 76 77 78 79 80
26 28 29 31 33 34 34 34 34 34 34 34 34 33 32 31 29 27 25 24 24 27 30 33 36 39 42 45 50 54 59 63 67 70 72 72 71 70 70 71 72 74 75
25 26 28 30 32 33 34 33 33 32 32 32 32 31 30 29 27 24 22 20 19 19 22 25 28 32 35 38 42 47 52 56 61 64 66 67 67 66 65 64 65 67 68
25 26 28 30 32 33 34 35 34 33 32 31 30 29 28 26 25 23 21 18 16 15 16 18 20 24 27 31 35 39 43 48 52 56 58 60 61 60 60 60 60 61 62
24 26 29 31 33 35 35 36 36 35 34 32 29 27 25 24 23 21 19 17 15 13 11 11 13 16 19 23 26 30 34 38 43 47 49 51 52 53 54 54 55 56 57
24 26 29 31 33 36 37 38 38 37 36 34 31 27 24 22 21 19 17 15 13 10 8 7 8 10 13 16 19 22 25 28 32 37 40 42 44 45 47 49 50 51 52
23 26 29 31 34 36 38 39 40 40 38 36 33 29 25 22 19 17 15 13 11 9 7 6 6 6 8 10 13 16 18 22 25 29 32 35 36 38 40 42 43 44 46
24 26 29 31 34 36 38 39 40 40 39 37 34 30 27 22 19 16 14 12 10 9 7 6 5 5 6 7 9 12 15 18 21 24 27 29 31 33 35 36 38 40 42
Wind_Direction
271 269 267 265 264 263 263 263 263 264 264 264 264 264 263 262 261 260 259 259 259 259 259 260 260 261 261 262 261 261 261 261 261 261 261 262 264 265 265 264 264 264 263
269 267 265 265 265 265 265 264 264 263 263 264 264 264 264 264 263 262 261 260 260 259 260 260 260 260 260 261 261 260 259 259 259 258 258 259 261 262 263 263 263 263 263
268 266 266 266 267 268 268 267 267 267 267 266 266 265 265 265 264 263 262 262 261 261 260 260 260 260 260 260 260 259 258 257 256 256 255 256 257 260 261 262 262 262 262
269 269 270 270 270 270 271 271 271 270 270 270 269 268 267 266 265 264 263 262 262 261 261 261 260 260 260 260 259 258 257 256 255 254 253 253 254 256 258 260 261 261 261
272 273 273 273 273 273 274 273 273 273 273 272 271 271 269 268 266 265 264 263 262 261 260 260 260 260 260 259 259 258 257 255 254 253 252 251 252 254 257 258 258 259 261
275 275 275 275 276 276 275 275 274 274 274 273 272 271 270 268 267 266 264 263 261 260 260 259 259 258 258 258 258 257 256 255 254 252 250 250 251 252 254 255 256 258 260
276 277 277 277 277 277 276 276 275 274 273 273 272 271 270 269 268 267 265 263 261 260 259 258 258 257 257 256 256 256 255 255 254 252 250 250 249 250 251 253 255 257 258
279 279 279 279 278 278 278 277 276 276 275 274 273 272 271 269 269 268 266 264 262 260 259 258 257 256 256 255 254 254 254 253 252 251 251 249 248 248 249 251 253 255 256
282 282 281 281 280 279 278 278 277 276 275 274 274 273 271 270 268 267 266 265 263 261 259 257 256 255 255 255 254 253 252 251 251 250 250 248 247 248 250 251 253 256 258
284 284 283 283 282 281 281 280 278 277 276 275 274 273 271 270 268 266 265 264 262 261 259 257 256 254 253 253 253 252 251 250 250 249 249 249 249 249 250 251 254 255 257
287 286 286 285 285 284 283 282 281 279 278 276 274 272 271 270 268 266 264 263 262 260 258 256 255 254 253 252 252 251 251 250 249 248 249 249 249 250 251 252 253 254 256
290 290 290 289 289 288 287 286 285 283 282 280 277 275 272 270 268 265 263 262 261 260 258 256 254 253 251 250 250 250 249 249 249 248 248 248 249 250 251 252 252 253 254
294 294 294 294 293 293 292 291 289 288 286 284 282 280 276 273 270 266 263 261 260 259 258 256 253 252 250 249 248 248 248 248 248 248 248 249 249 249 250 250 251 251 253
298 299 299 299 298 297 297 296 295 293 291 289 287 284 281 277 273 269 265 262 260 258 257 255 253 251 250 249 248 247 247 247 247 247 247 247 247 247 248 248 250 251 251
303 303 303 303 303 302 302 301 300 299 298 295 291 287 283 279 274 271 268 264 261 259 257 254 252 250 249 248 248 246 246 246 245 245 246 245 246 246 246 247 247 248 249
307 307 308 309 309 309 308 307 307 306 305 303 299 295 289 283 276 271 268 265 263 260 258 255 253 250 248 247 246 245 243 243 243 243 243 243 243 243 244 245 245 246 247
312 313 313 314 314 314 314 314 314 314 314 313 311 308 303 295 285 276 270 265 262 260 259 257 254 250 247 246 244 243 241 240 240 240 240 240 241 241 242 243 243 244 245
318 320 321 321 320 319 319 319 319 319 319 319 319 319 316 310 300 288 277 269 263 260 258 257 254 249 245 243 242 241 239 237 237 238 238 238 239 239 240 240 241 242 243
326 329 331 331 328 325 323 322 321 321 322 323 324 324 324 322 315 304 291 278 267 260 256 253 250 247 243 240 239 238 237 236 235 236 236 236 237 238 239 239 240 241 243
329 335 340 342 342 339 335 331 328 326 325 325 326 328 329 328 324 318 308 294 278 266 258 253 249 246 242 239 237 236 236 235 235 234 235 235 237 238 239 240 241 242 243
326 333 339 343 345 346 346 344 341 336 332 330 330 332 334 335 334 329 322 311 296 278 264 256 250 246 242 240 238 237 236 235 234 234 234 235 236 238 240 241 243 244 245
324 331 336 339 341 343 345 347 347 346 343 338 335 335 337 338 340 340 334 325 313 297 279 266 256 250 245 242 240 239 238 236 235 233 233 235 237 239 241 243 244 246 247
322 329 334 337 340 342 343 345 347 348 347 345 341 337 337 338 341 343 342 337 327 314 298 280 263 251 246 244 242 241 239 237 235 234 233 235 237 239 241 243 245 247 248
319 326 331 334 337 340 341 343 343 345 346 347 344 340 336 334 336 340 343 343 339 329 311 286 265 253 249 246 243 240 238 236 235 234 234 235 237 239 241 243 244 246 247
316 323 327 331 334 336 339 340 341 341 342 343 344 342 338 333 331 332 336 338 337 331 318 296 274 261 253 244 237 232 230 230 231 232 233 236 237 239 241 243 245 247 248
313 319 324 328 331 334 336 337 337 337 338 338 339 340 340 335 328 324 324 325 324 319 309 292 272 260 249 237 229 224 222 223 225 228 231 234 237 239 241 243 245 247 249
Height
5618 5617 5616 5616 5615 5614 5614 5613 5613 5612 5612 5611 5611 5611 5612 5612 5613 5614 5615 5617 5619 5622 5623 5625 5628 5629 5632 5635 5636 5638 5640 5643 5646 5651 5655 5656 5658 5661 5664 5666 5669 5671 5673
5597 5595 5594 5593 5592 5591 5591 5590 5590 5590 5589 5589 5589 5589 5589 5589 5589 5590 5591 5592 5595 5598 5600 5603 5606 5607 5610 5613 5615 5618 5620 5622 5624 5629 5635 5638 5640 5642 5645 5649 5652 5654 5656
5574 5572 5570 5568 5567 5567 5566 5565 5565 5565 5565 5565 5565 5565 5565 5565 5565 5565 5567 5568 5570 5573 5575 5579 5583 5584 5588 5590 5593 5597 5599 5600 5602 5607 5613 5618 5621 5623 5626 5630 5634 5637 5639
5549 5546 5544 5543 5542 5541 5540 5539 5538 5538 5539 5539 5539 5539 5540 5540 5540 5540 5542 5543 5545 5548 5550 5554 5558 5560 5564 5566 5570 5574 5576 5577 5579 5584 5591 5597 5601 5603 5606 5611 5616 5619 5620
5522 5519 5517 5515 5514 5513 5512 5511 5510 5510 5510 5511 5511 5512 5513 5513 5514 5514 5515 5517 5519 5522 5525 5528 5532 5535 5539 5542 5546 5550 5551 5554 5556 5561 5568 5574 5580 5583 5589 5594 5596 5597 5600
5494 5491 5488 5486 5485 5484 5482 5481 5481 5480 5479 5480 5480 5481 5483 5484 5484 5485 5485 5488 5491 5494 5498 5501 5505 5509 5513 5516 5520 5524 5527 5530 5535 5538 5544 5551 5559 5565 5569 5571 5574 5576 5583
5466 5464 5460 5457 5455 5453 5450 5449 5448 5447 5447 5447 5448 5448 5450 5453 5452 5453 5453 5454 5459 5464 5469 5473 5477 5482 5486 5490 5493 5497 5502 5507 5512 5517 5520 5530 5537 5544 5547 5549 5552 5556 5563
5439 5436 5433 5428 5425 5422 5419 5416 5414 5411 5411 5411 5412 5413 5414 5419 5419 5417 5417 5417 5423 5430 5436 5441 5446 5453 5457 5461 5465 5469 5477 5484 5491 5494 5501 5509 5511 5517 5522 5527 5530 5533 5539
5416 5412 5407 5402 5397 5394 5390 5387 5383 5378 5377 5376 5375 5376 5376 5381 5384 5381 5379 5378 5383 5393 5401 5407 5413 5421 5429 5430 5434 5442 5450 5459 5464 5469 5476 5481 5485 5492 5499 5503 5507 5511 5518
5396 5390 5384 5378 5371 5366 5361 5357 5352 5347 5344 5343 5341 5342 5340 5342 5347 5345 5343 5339 5344 5354 5362 5369 5378 5386 5394 5396 5400 5410 5421 5432 5437 5442 5449 5455 5461 5467 5474 5482 5487 5490 5496
5375 5369 5362 5354 5346 5339 5333 5327 5321 5316 5312 5310 5307 5308 5307 5307 5310 5310 5308 5302 5306 5312 5320 5330 5341 5349 5356 5362 5367 5377 5392 5400 5405 5412 5420 5428 5436 5443 5450 5459 5465 5469 5474
5353 5346 5337 5329 5320 5312 5304 5298 5291 5285 5280 5277 5274 5274 5274 5273 5273 5274 5272 5269 5270 5274 5284 5295 5305 5312 5318 5326 5333 5345 5358 5364 5372 5381 5391 5401 5411 5420 5427 5434 5440 5445 5450
5331 5322 5313 5305 5296 5287 5278 5272 5265 5258 5252 5248 5244 5242 5242 5240 5239 5238 5237 5237 5237 5240 5250 5261 5270 5276 5282 5291 5302 5313 5322 5330 5340 5352 5364 5376 5386 5393 5399 5405 5412 5419 5426
5310 5301 5291 5283 5275 5267 5258 5251 5244 5237 5231 5225 5220 5217 5215 5213 5210 5208 5206 5206 5207 5210 5216 5226 5235 5243 5250 5260 5272 5282 5290 5301 5312 5323 5335 5346 5354 5363 5371 5379 5386 5394 5401
5292 5283 5275 5266 5258 5251 5243 5234 5227 5219 5210 5204 5199 5195 5192 5190 5186 5182 5181 5182 5182 5184 5187 5193 5203 5213 5223 5233 5243 5255 5264 5273 5283 5294 5304 5315 5326 5336 5345 5353 5361 5369 5376
5278 5269 5261 5253 5246 5238 5231 5223 5212 5203 5195 5186 5179 5174 5170 5166 5163 5160 5159 5159 5160 5160 5162 5169 5179 5188 5197 5206 5215 5226 5238 5247 5256 5265 5275 5286 5298 5309 5319 5328 5336 5344 5350
5266 5258 5250 5242 5235 5227 5219 5212 5204 5195 5183 5174 5166 5159 5153 5147 5143 5140 5138 5139 5140 5140 5143 5151 5158 5165 5172 5180 5189 5200 5211 5221 5230 5238 5249 5261 5272 5283 5293 5302 5310 5317 5323
5257 5249 5241 5233 5225 5217 5209 5202 5194 5186 5179 5169 5159 5150 5142 5135 5129 5124 5122 5122 5123 5124 5128 5134 5140 5145 5151 5158 5166 5175 5186 5195 5205 5215 5226 5237 5248 5258 5268 5276 5284 5292 5299
5250 5242 5234 5226 5217 5209 5201 5194 5186 5178 5170 5162 5154 5145 5136 5128 5121 5115 5111 5109 5110 5111 5114 5118 5123 5127 5133 5139 5146 5154 5163 5173 5183 5193 5204 5215 5226 5236 5245 5254 5262 5269 5276
5244 5236 5228 5221 5213 5204 5196 5187 5179 5172 5164 5156 5149 5141 5133 5124 5117 5110 5105 5102 5101 5102 5103 5106 5110 5114 5119 5124 5131 5137 5145 5154 5164 5174 5185 5196 5207 5216 5225 5233 5241 5247 5254
5238 5231 5224 5217 5209 5201 5192 5184 5175 5167 5159 5151 5144 5136 5129 5121 5114 5107 5102 5099 5096 5096 5096 5098 5101 5104 5108 5113 5119 5124 5131 5139 5148 5158 5169 5180 5190 5199 5208 5215 5222 5228 5234
5232 5226 5219 5213 5205 5198 5189 5181 5172 5164 5156 5148 5140 5133 5126 5119 5112 5106 5101 5097 5095 5093 5093 5094 5096 5098 5102 5106 5110 5115 5121 5128 5137 5146 5156 5165 5175 5184 5192 5199 5205 5211 5216
5226 5220 5214 5208 5201 5193 5186 5178 5170 5161 5153 5146 5138 5131 5125 5118 5112 5106 5101 5097 5094 5093 5092 5092 5093 5095 5097 5100 5104 5108 5114 5120 5128 5136 5145 5154 5162 5170 5177 5183 5189 5194 5199
5220 5215 5210 5203 5197 5189 5182 5174 5166 5159 5151 5144 5136 5129 5123 5118 5112 5107 5103 5099 5095 5093 5092 5092 5092 5093 5095 5097 5100 5104 5109 5115 5121 5128 5136 5143 5150 5157 5163 5168 5174 5178 5183
5214 5210 5204 5198 5192 5185 5177 5170 5162 5155 5148 5141 5134 5127 5121 5116 5112 5107 5104 5100 5097 5095 5093 5093 5092 5093 5094 5095 5098 5101 5105 5110 5115 5121 5127 5133 5139 5145 5150 5155 5159 5164 5168
5208 5204 5199 5193 5187 5180 5173 5165 5158 5151 5144 5137 5131 5125 5119 5114 5110 5106 5103 5100 5098 5096 5094 5093 5093 5093 5094 5095 5097 5099 5102 5106 5110 5115 5120 5125 5129 5134 5139 5143 5147 5150 5154